Location: Newark
(53.3333°N, 83.7500°E)
Time: 16:24:14
(UTC+00:00)

Vanguard 2 - Pass Details

Date: 24 November 2019
Orbit: 553 x 2938 km, 32.9° (Epoch: 14 December)

Event Time Altitude Azimuth Distance (km) Brightness Sun altitude
Rises 01:35:20 0° 227° (SW) 6,127 11.9 -4.6°
Reaches altitude 10° 01:41:18 10° 213° (SSW) 4,683 11.5 -3.8°
Maximum altitude 01:48:59 19° 175° (S) 3,308 11.3 -2.8°
Drops below altitude 10° 01:54:48 10° 134° (SE) 3,400 12.7 -2.1°
Sets 01:58:11 0° 116° (ESE) 4,006 14.0 -1.7°
